Satellite-Ground Cal/Val Region Overpasses Predictions

Prediction of Satellite NPP Overpassing Cal/Val Region: PacNW

Region Location: (Latitude: 10.00, Longitude: 139.50) to (Latitude: 22.70, Longitude: 165.60).

Table of predicted overpasses for the next 14.0 days since TLE Epoch: 10/12/2019
Interval Starting Time Starting Location Ending Time Ending Location
1 10/12/2019 14:39:48 ( 22.69, 165.02) 10/12/2019 14:43:24 ( 10.01, 162.01)
2 10/12/2019 16:21:18 ( 22.68, 139.65) 10/12/2019 16:21:28 ( 22.09, 139.50)
3 10/13/2019 03:30:23 ( 10.02, 147.18) 10/13/2019 03:33:58 ( 22.64, 144.19)
4 10/13/2019 16:02:16 ( 22.64, 144.40) 10/13/2019 16:05:51 ( 10.02, 141.40)
5 10/14/2019 03:11:21 ( 10.06, 151.93) 10/14/2019 03:14:56 ( 22.68, 148.93)
6 10/14/2019 15:43:14 ( 22.66, 149.16) 10/14/2019 15:46:49 ( 10.04, 146.16)
7 10/15/2019 02:52:19 ( 10.04, 156.69) 10/15/2019 02:55:54 ( 22.66, 153.70)
8 10/15/2019 15:24:11 ( 22.68, 153.92) 10/15/2019 15:27:47 ( 10.00, 150.91)
9 10/16/2019 02:33:16 ( 10.02, 161.45) 10/16/2019 02:36:52 ( 22.70, 158.44)
10 10/16/2019 15:05:10 ( 22.64, 158.67) 10/16/2019 15:08:45 ( 10.02, 155.67)
11 10/17/2019 02:15:00 ( 12.70, 165.59) 10/17/2019 02:17:50 ( 22.68, 163.20)
12 10/17/2019 03:55:44 ( 10.01, 140.84) 10/17/2019 03:57:22 ( 15.76, 139.51)
13 10/17/2019 14:46:07 ( 22.66, 163.43) 10/17/2019 14:49:42 ( 10.04, 160.43)
14 10/18/2019 03:36:42 ( 10.04, 145.59) 10/18/2019 03:40:17 ( 22.67, 142.59)
15 10/18/2019 14:30:10 ( 11.82, 165.59) 10/18/2019 14:30:41 ( 10.00, 165.18)
16 10/18/2019 16:08:35 ( 22.68, 142.81) 10/18/2019 16:12:10 ( 10.05, 139.81)
17 10/19/2019 03:17:40 ( 10.03, 150.35) 10/19/2019 03:21:15 ( 22.65, 147.35)
18 10/19/2019 15:49:32 ( 22.69, 147.57) 10/19/2019 15:53:08 ( 10.01, 144.56)
19 10/20/2019 02:58:37 ( 10.01, 155.11) 10/20/2019 03:02:13 ( 22.69, 152.10)
20 10/20/2019 15:30:31 ( 22.65, 152.32) 10/20/2019 15:34:06 ( 10.03, 149.32)
21 10/21/2019 02:39:36 ( 10.05, 159.86) 10/21/2019 02:43:11 ( 22.67, 156.86)
22 10/21/2019 15:11:29 ( 22.67, 157.08) 10/21/2019 15:15:04 ( 10.05, 154.08)
23 10/22/2019 02:20:33 ( 10.03, 164.62) 10/22/2019 02:24:08 ( 22.65, 161.62)
24 10/22/2019 14:52:26 ( 22.69, 161.84) 10/22/2019 14:56:02 ( 10.01, 158.83)
25 10/23/2019 03:43:01 ( 10.02, 144.00) 10/23/2019 03:46:36 ( 22.64, 141.00)
26 10/23/2019 14:34:34 ( 18.60, 165.59) 10/23/2019 14:37:00 ( 10.03, 163.59)
27 10/23/2019 16:14:55 ( 22.64, 141.21) 10/23/2019 16:16:55 ( 15.60, 139.51)
28 10/24/2019 03:23:58 ( 10.00, 148.76) 10/24/2019 03:27:34 ( 22.69, 145.75)
29 10/24/2019 15:55:52 ( 22.66, 145.97) 10/24/2019 15:59:27 ( 10.04, 142.97)
30 10/25/2019 03:04:57 ( 10.05, 153.51) 10/25/2019 03:08:32 ( 22.67, 150.51)
31 10/25/2019 15:36:50 ( 22.68, 150.73) 10/25/2019 15:40:25 ( 10.05, 147.74)


NCC Satellite Cal/Val Overpasses Prediction Service
